Time,TemperatureF,DewpointF,PressureIn,WindDirection,WindDirectionDegrees,WindSpeedMPH,WindSpeedGustMPH,Humidity,HourlyPrecipIn,Conditions,Clouds,dailyrainin,SoftwareType,DateUTC
2013-01-30 00:03:00,56.0,54.0,29.71,SW,226,5.0,11.0,92,0.00,,,0.73,,2013-01-30 05:03:00,
2013-01-30 00:12:00,56.0,54.0,29.71,SW,226,5.0,11.0,92,0.00,,,0.73,,2013-01-30 05:12:00,
2013-01-30 00:22:00,56.0,54.0,29.69,SSW,195,7.0,11.0,92,0.00,,,0.73,,2013-01-30 05:22:00,
2013-01-30 00:32:00,57.0,54.0,29.69,SE,139,7.0,14.0,90,0.00,,,0.73,,2013-01-30 05:32:00,
2013-01-30 00:43:00,57.0,54.0,29.69,SE,139,7.0,14.0,90,0.00,,,0.73,,2013-01-30 05:43:00,
2013-01-30 00:52:00,57.0,54.0,29.67,SW,217,9.0,16.0,90,0.00,,,0.73,,2013-01-30 05:52:00,
2013-01-30 01:02:00,57.0,54.0,29.66,SSE,165,8.0,21.0,89,0.00,,,0.73,,2013-01-30 06:02:00,
2013-01-30 01:12:00,57.0,54.0,29.66,SSE,165,8.0,21.0,89,0.00,,,0.73,,2013-01-30 06:12:00,
2013-01-30 01:22:00,57.0,53.0,29.64,SSE,157,5.0,12.0,88,0.01,,,0.74,,2013-01-30 06:22:00,
2013-01-30 01:32:00,57.0,53.0,29.62,SSE,167,4.0,11.0,88,0.01,,,0.74,,2013-01-30 06:32:00,
2013-01-30 01:42:00,57.0,53.0,29.62,SSE,167,4.0,11.0,88,0.01,,,0.74,,2013-01-30 06:42:00,
2013-01-30 01:52:00,56.0,53.0,29.60,SSW,203,3.0,9.0,90,0.01,,,0.74,,2013-01-30 06:52:00,
2013-01-30 02:02:00,55.0,52.0,29.59,South,186,3.0,7.0,90,0.01,,,0.74,,2013-01-30 07:02:00,
2013-01-30 02:12:00,55.0,52.0,29.59,South,186,3.0,7.0,90,0.01,,,0.74,,2013-01-30 07:12:00,
2013-01-30 02:22:00,55.0,52.0,29.59,South,173,3.0,11.0,90,0.00,,,0.74,,2013-01-30 07:22:00,
2013-01-30 02:32:00,54.0,51.0,29.57,SW,233,4.0,11.0,90,0.00,,,0.74,,2013-01-30 07:32:00,
2013-01-30 02:42:00,54.0,51.0,29.57,SW,233,4.0,11.0,90,0.00,,,0.74,,2013-01-30 07:42:00,
2013-01-30 02:52:00,54.0,51.0,29.57,SSW,207,3.0,8.0,89,0.00,,,0.74,,2013-01-30 07:52:00,
2013-01-30 03:02:00,54.0,51.0,29.57,South,170,2.0,6.0,89,0.00,,,0.74,,2013-01-30 08:02:00,
2013-01-30 03:11:00,54.0,51.0,29.57,South,170,2.0,6.0,89,0.00,,,0.74,,2013-01-30 08:11:00,
2013-01-30 03:22:00,53.0,50.0,29.55,West,277,2.0,7.0,90,0.00,,,0.74,,2013-01-30 08:22:00,
2013-01-30 03:32:00,53.0,50.0,29.54,SE,146,1.0,6.0,91,0.00,,,0.74,,2013-01-30 08:32:00,
2013-01-30 03:42:00,53.0,50.0,29.54,SE,146,1.0,6.0,91,0.00,,,0.74,,2013-01-30 08:42:00,
2013-01-30 03:52:00,54.0,51.0,29.53,SSW,203,2.0,8.0,90,0.00,,,0.74,,2013-01-30 08:52:00,
2013-01-30 04:02:00,56.0,52.0,29.52,SW,222,6.0,11.0,88,0.00,,,0.74,,2013-01-30 09:02:00,
2013-01-30 04:11:00,56.0,52.0,29.52,SW,222,6.0,11.0,88,0.00,,,0.74,,2013-01-30 09:11:00,
2013-01-30 04:22:00,59.0,54.0,29.50,SW,225,10.0,18.0,82,0.00,,,0.74,,2013-01-30 09:22:00,
2013-01-30 04:32:00,61.0,54.0,29.49,SSW,211,11.0,25.0,78,0.00,,,0.74,,2013-01-30 09:32:00,
2013-01-30 04:42:00,61.0,54.0,29.49,SSW,211,11.0,25.0,78,0.00,,,0.74,,2013-01-30 09:42:00,
2013-01-30 04:52:00,62.0,54.0,29.49,SSE,167,9.0,20.0,76,0.00,,,0.74,,2013-01-30 09:52:00,
2013-01-30 05:01:00,62.0,54.0,29.49,SSW,211,7.0,16.0,75,0.00,,,0.74,,2013-01-30 10:01:00,
2013-01-30 05:12:00,62.0,54.0,29.49,SSW,211,7.0,16.0,75,0.00,,,0.74,,2013-01-30 10:12:00,
2013-01-30 05:21:00,62.0,54.0,29.47,South,185,8.0,17.0,74,0.00,,,0.74,,2013-01-30 10:21:00,
2013-01-30 05:32:00,62.0,53.0,29.45,SW,229,8.0,15.0,73,0.00,,,0.74,,2013-01-30 10:32:00,
2013-01-30 05:42:00,62.0,53.0,29.45,SW,229,8.0,15.0,73,0.00,,,0.74,,2013-01-30 10:42:00,
2013-01-30 05:52:00,62.0,53.0,29.44,SW,224,7.0,18.0,72,0.00,,,0.74,,2013-01-30 10:52:00,
2013-01-30 06:02:00,62.0,52.0,29.43,SW,228,5.0,18.0,71,0.00,,,0.74,,2013-01-30 11:02:00,
2013-01-30 06:11:00,62.0,52.0,29.43,SW,228,5.0,18.0,71,0.00,,,0.74,,2013-01-30 11:11:00,
2013-01-30 06:22:00,62.0,52.0,29.42,SW,236,9.0,20.0,71,0.00,,,0.74,,2013-01-30 11:22:00,
2013-01-30 06:33:00,63.0,53.0,29.41,WSW,252,8.0,16.0,70,0.00,,,0.74,,2013-01-30 11:33:00,
2013-01-30 06:42:00,63.0,53.0,29.41,WSW,252,8.0,16.0,70,0.00,,,0.74,,2013-01-30 11:42:00,
2013-01-30 06:52:00,64.0,53.0,29.40,SSW,198,8.0,16.0,68,0.00,,,0.74,,2013-01-30 11:52:00,
2013-01-30 07:02:00,64.0,53.0,29.40,SW,229,11.0,21.0,67,0.00,,,0.74,,2013-01-30 12:02:00,
2013-01-30 07:12:00,64.0,53.0,29.40,SW,229,11.0,21.0,67,0.00,,,0.74,,2013-01-30 12:12:00,
2013-01-30 07:22:00,65.0,53.0,29.39,SSW,204,10.0,29.0,65,0.00,,,0.74,,2013-01-30 12:22:00,
2013-01-30 07:33:00,65.0,53.0,29.39,SSW,208,11.0,31.0,64,0.00,,,0.74,,2013-01-30 12:33:00,
2013-01-30 07:43:00,65.0,53.0,29.39,SSW,208,11.0,31.0,64,0.00,,,0.74,,2013-01-30 12:43:00,
2013-01-30 08:03:00,66.0,53.0,29.37,WSW,253,11.0,33.0,64,0.00,,,0.74,,2013-01-30 13:03:00,
2013-01-30 08:12:00,66.0,53.0,29.37,WSW,253,11.0,33.0,64,0.00,,,0.74,,2013-01-30 13:12:00,
2013-01-30 08:23:00,66.0,53.0,29.37,SW,232,15.0,34.0,64,0.00,,,0.74,,2013-01-30 13:23:00,
2013-01-30 08:33:00,66.0,53.0,29.37,SW,225,15.0,29.0,64,0.00,,,0.74,,2013-01-30 13:33:00,
2013-01-30 08:43:00,66.0,53.0,29.37,SW,225,15.0,29.0,64,0.00,,,0.74,,2013-01-30 13:43:00,
2013-01-30 08:53:00,66.0,53.0,29.36,WSW,257,12.0,25.0,64,0.00,,,0.74,,2013-01-30 13:53:00,
2013-01-30 09:03:00,66.0,53.0,29.34,SW,232,16.0,31.0,63,0.00,,,0.74,,2013-01-30 14:03:00,
2013-01-30 09:12:00,66.0,53.0,29.34,SW,232,16.0,31.0,63,0.00,,,0.74,,2013-01-30 14:12:00,
2013-01-30 09:23:00,66.0,53.0,29.33,WSW,243,16.0,33.0,63,0.00,,,0.74,,2013-01-30 14:23:00,
2013-01-30 09:33:00,67.0,54.0,29.32,SSW,200,15.0,30.0,63,0.00,,,0.74,,2013-01-30 14:33:00,
2013-01-30 09:42:00,67.0,54.0,29.32,SSW,200,15.0,30.0,63,0.00,,,0.74,,2013-01-30 14:42:00,
2013-01-30 09:53:00,66.0,53.0,29.33,SSW,207,15.0,32.0,64,0.00,,,0.74,,2013-01-30 14:53:00,
2013-01-30 10:03:00,66.0,55.0,29.33,SW,232,15.0,30.0,67,0.00,,,0.74,,2013-01-30 15:03:00,
2013-01-30 10:12:00,66.0,55.0,29.33,SW,232,15.0,30.0,67,0.00,,,0.74,,2013-01-30 15:12:00,
2013-01-30 10:23:00,64.0,56.0,29.32,SSW,210,12.0,25.0,75,0.00,,,0.74,,2013-01-30 15:23:00,
2013-01-30 10:33:00,62.0,56.0,29.31,SSE,151,11.0,23.0,80,0.02,,,0.76,,2013-01-30 15:33:00,
2013-01-30 10:43:00,62.0,56.0,29.31,SSE,151,11.0,23.0,80,0.02,,,0.76,,2013-01-30 15:43:00,
2013-01-30 10:53:00,62.0,57.0,29.31,WSW,242,14.0,26.0,83,0.05,,,0.79,,2013-01-30 15:53:00,
2013-01-30 11:03:00,61.0,56.0,29.36,WSW,253,21.0,33.0,83,0.06,,,0.80,,2013-01-30 16:03:00,
2013-01-30 11:12:00,61.0,56.0,29.36,WSW,253,21.0,33.0,83,0.06,,,0.80,,2013-01-30 16:12:00,
2013-01-30 11:23:00,58.0,54.0,29.36,WSW,239,15.0,29.0,88,0.07,,,0.81,,2013-01-30 16:23:00,
2013-01-30 11:32:00,57.0,54.0,29.33,SW,222,15.0,23.0,89,0.05,,,0.81,,2013-01-30 16:32:00,
2013-01-30 11:42:00,57.0,54.0,29.33,SW,222,15.0,23.0,89,0.05,,,0.81,,2013-01-30 16:42:00,
2013-01-30 11:52:00,57.0,54.0,29.33,SW,222,15.0,23.0,89,0.05,,,0.81,,2013-01-30 16:52:00,
2013-01-30 12:02:00,57.0,54.0,29.34,SW,236,17.0,28.0,91,0.02,,,0.81,,2013-01-30 17:02:00,
2013-01-30 12:13:00,57.0,54.0,29.34,SW,236,17.0,28.0,91,0.02,,,0.81,,2013-01-30 17:13:00,
2013-01-30 12:23:00,56.0,54.0,29.32,SW,217,12.0,26.0,93,0.00,,,0.59,,2013-01-30 17:23:00,
2013-01-30 12:33:00,57.0,55.0,29.28,SSW,192,11.0,21.0,93,0.00,,,0.59,,2013-01-30 17:33:00,
2013-01-30 12:43:00,57.0,55.0,29.28,SSW,192,11.0,21.0,93,0.00,,,0.59,,2013-01-30 17:43:00,
2013-01-30 12:53:00,59.0,56.0,29.28,SSW,203,10.0,19.0,90,0.00,,,0.59,,2013-01-30 17:53:00,
2013-01-30 13:03:00,60.0,55.0,29.26,SSE,166,13.0,23.0,85,0.00,,,0.59,,2013-01-30 18:03:00,
2013-01-30 13:13:00,60.0,55.0,29.26,SSE,166,13.0,23.0,85,0.00,,,0.59,,2013-01-30 18:13:00,
2013-01-30 13:23:00,61.0,55.0,29.26,SSW,205,13.0,22.0,81,0.00,,,0.50,,2013-01-30 18:23:00,
2013-01-30 13:33:00,62.0,55.0,29.27,SSW,195,13.0,22.0,78,0.00,,,0.50,,2013-01-30 18:33:00,
2013-01-30 13:43:00,62.0,55.0,29.27,SSW,195,13.0,22.0,78,0.00,,,0.50,,2013-01-30 18:43:00,
2013-01-30 13:53:00,62.0,54.0,29.28,WSW,239,15.0,29.0,76,0.00,,,0.50,,2013-01-30 18:53:00,
2013-01-30 14:03:00,62.0,54.0,29.26,SSE,155,15.0,27.0,75,0.00,,,0.50,,2013-01-30 19:03:00,
2013-01-30 14:13:00,62.0,54.0,29.26,SSE,155,15.0,27.0,75,0.00,,,0.50,,2013-01-30 19:13:00,
2013-01-30 14:22:00,63.0,54.0,29.24,SW,219,14.0,26.0,73,0.00,,,0.50,,2013-01-30 19:22:00,
2013-01-30 14:33:00,62.0,53.0,29.21,SSW,205,10.0,21.0,72,0.00,,,0.50,,2013-01-30 19:33:00,
2013-01-30 14:43:00,62.0,53.0,29.21,SSW,205,10.0,21.0,72,0.00,,,0.50,,2013-01-30 19:43:00,
2013-01-30 14:53:00,63.0,53.0,29.21,SSW,212,10.0,21.0,69,0.00,,,0.50,,2013-01-30 19:53:00,
2013-01-30 15:03:00,64.0,52.0,29.23,SW,218,11.0,23.0,66,0.00,,,0.50,,2013-01-30 20:03:00,
2013-01-30 15:12:00,64.0,52.0,29.23,SW,218,11.0,23.0,66,0.00,,,0.50,,2013-01-30 20:12:00,
2013-01-30 15:22:00,64.0,52.0,29.27,West,271,12.0,20.0,64,0.00,,,0.43,,2013-01-30 20:22:00,
2013-01-30 15:33:00,60.0,51.0,29.29,West,276,13.0,26.0,73,0.00,,,0.43,,2013-01-30 20:33:00,
2013-01-30 15:42:00,60.0,51.0,29.29,West,276,13.0,26.0,73,0.00,,,0.43,,2013-01-30 20:42:00,
2013-01-30 15:53:00,58.0,50.0,29.29,West,274,12.0,22.0,74,0.00,,,0.43,,2013-01-30 20:53:00,
2013-01-30 16:03:00,57.0,50.0,29.29,SW,229,11.0,23.0,76,0.00,,,0.43,,2013-01-30 21:03:00,
2013-01-30 16:12:00,57.0,50.0,29.29,SW,229,11.0,23.0,76,0.00,,,0.43,,2013-01-30 21:12:00,
2013-01-30 16:23:00,57.0,50.0,29.28,SSW,208,8.0,15.0,76,0.00,,,0.21,,2013-01-30 21:23:00,
2013-01-30 16:32:00,57.0,50.0,29.27,WSW,241,8.0,12.0,77,0.00,,,0.21,,2013-01-30 21:32:00,
2013-01-30 16:42:00,57.0,50.0,29.27,WSW,241,8.0,12.0,77,0.00,,,0.21,,2013-01-30 21:42:00,
2013-01-30 16:53:00,57.0,50.0,29.26,WSW,250,8.0,13.0,77,0.00,,,0.21,,2013-01-30 21:53:00,
2013-01-30 17:03:00,57.0,50.0,29.28,SW,236,9.0,14.0,77,0.00,,,0.21,,2013-01-30 22:03:00,
2013-01-30 17:12:00,57.0,50.0,29.28,SW,236,9.0,14.0,77,0.00,,,0.21,,2013-01-30 22:12:00,
2013-01-30 17:22:00,56.0,49.0,29.27,SW,229,6.0,14.0,78,0.00,,,0.20,,2013-01-30 22:22:00,
2013-01-30 17:32:00,56.0,50.0,29.27,West,262,8.0,15.0,79,0.00,,,0.20,,2013-01-30 22:32:00,
2013-01-30 17:42:00,56.0,50.0,29.27,West,262,8.0,15.0,79,0.00,,,0.20,,2013-01-30 22:42:00,
2013-01-30 17:53:00,55.0,49.0,29.27,SW,236,8.0,15.0,81,0.00,,,0.20,,2013-01-30 22:53:00,
2013-01-30 18:02:00,55.0,50.0,29.27,West,262,8.0,13.0,82,0.00,,,0.20,,2013-01-30 23:02:00,
2013-01-30 18:12:00,55.0,50.0,29.27,West,262,8.0,13.0,82,0.00,,,0.20,,2013-01-30 23:12:00,
2013-01-30 18:22:00,54.0,49.0,29.24,SSE,165,5.0,11.0,83,0.00,,,0.20,,2013-01-30 23:22:00,
2013-01-30 18:33:00,54.0,49.0,29.23,SW,235,3.0,8.0,84,0.00,,,0.20,,2013-01-30 23:33:00,
2013-01-30 18:42:00,54.0,49.0,29.23,SW,235,3.0,8.0,84,0.00,,,0.20,,2013-01-30 23:42:00,
2013-01-30 18:52:00,54.0,49.0,29.22,SW,217,6.0,10.0,84,0.00,,,0.20,,2013-01-30 23:52:00,
2013-01-30 19:02:00,55.0,50.0,29.23,SSW,193,8.0,17.0,82,0.00,,,0.20,,2013-01-31 00:02:00,
2013-01-30 19:11:00,55.0,50.0,29.23,SSW,193,8.0,17.0,82,0.00,,,0.20,,2013-01-31 00:11:00,
2013-01-30 19:22:00,55.0,49.0,29.20,WSW,255,7.0,16.0,81,0.00,,,0.19,,2013-01-31 00:22:00,
2013-01-30 19:32:00,55.0,50.0,29.22,SSW,205,7.0,13.0,82,0.00,,,0.19,,2013-01-31 00:32:00,
2013-01-30 19:42:00,55.0,50.0,29.22,SSW,205,7.0,13.0,82,0.00,,,0.19,,2013-01-31 00:42:00,
2013-01-30 19:53:00,54.0,49.0,29.20,SSW,205,8.0,14.0,82,0.00,,,0.19,,2013-01-31 00:53:00,
2013-01-30 20:02:00,54.0,49.0,29.21,WSW,252,8.0,14.0,82,0.00,,,0.19,,2013-01-31 01:02:00,
2013-01-30 20:12:00,54.0,49.0,29.21,WSW,252,8.0,14.0,82,0.00,,,0.19,,2013-01-31 01:12:00,
2013-01-30 20:22:00,55.0,50.0,29.20,South,174,6.0,11.0,82,0.00,,,0.10,,2013-01-31 01:22:00,
2013-01-30 20:32:00,55.0,50.0,29.19,SSW,203,6.0,12.0,82,0.00,,,0.10,,2013-01-31 01:32:00,
2013-01-30 20:42:00,55.0,50.0,29.19,SSW,203,6.0,12.0,82,0.00,,,0.10,,2013-01-31 01:42:00,
2013-01-30 20:53:00,55.0,50.0,29.18,South,174,6.0,14.0,82,0.00,,,0.10,,2013-01-31 01:53:00,
2013-01-30 21:01:00,56.0,50.0,29.18,SW,224,8.0,12.0,81,0.00,,,0.10,,2013-01-31 02:01:00,
2013-01-30 21:12:00,56.0,50.0,29.18,SW,224,8.0,12.0,81,0.00,,,0.10,,2013-01-31 02:12:00,
2013-01-30 21:22:00,56.0,50.0,29.17,SW,228,8.0,15.0,80,0.00,,,0.09,,2013-01-31 02:22:00,
2013-01-30 21:32:00,56.0,50.0,29.16,WSW,243,9.0,15.0,80,0.00,,,0.09,,2013-01-31 02:32:00,
2013-01-30 21:42:00,56.0,50.0,29.16,WSW,243,9.0,15.0,80,0.00,,,0.09,,2013-01-31 02:42:00,
2013-01-30 21:52:00,56.0,50.0,29.16,WSW,243,9.0,15.0,80,0.00,,,0.09,,2013-01-31 02:52:00,
2013-01-30 22:03:00,56.0,51.0,29.12,SSE,166,3.0,10.0,82,0.00,,,0.09,,2013-01-31 03:03:00,
2013-01-30 22:11:00,56.0,51.0,29.12,SSE,166,3.0,10.0,82,0.00,,,0.09,,2013-01-31 03:11:00,
2013-01-30 22:22:00,56.0,51.0,29.10,SW,226,3.0,8.0,82,0.00,,,0.09,,2013-01-31 03:22:00,
2013-01-30 22:32:00,56.0,51.0,29.10,South,191,4.0,10.0,82,0.00,,,0.09,,2013-01-31 03:32:00,
2013-01-30 22:42:00,56.0,51.0,29.10,South,191,4.0,10.0,82,0.00,,,0.09,,2013-01-31 03:42:00,
2013-01-30 22:52:00,56.0,51.0,29.08,SW,222,5.0,12.0,83,0.00,,,0.09,,2013-01-31 03:52:00,
2013-01-30 23:02:00,54.0,51.0,29.08,SSE,165,6.0,13.0,88,0.05,,,0.14,,2013-01-31 04:02:00,
2013-01-30 23:11:00,54.0,51.0,29.08,SSE,165,6.0,13.0,88,0.05,,,0.14,,2013-01-31 04:11:00,
2013-01-30 23:22:00,54.0,52.0,29.08,WSW,248,11.0,22.0,92,0.18,,,0.26,,2013-01-31 04:22:00,
2013-01-30 23:32:00,54.0,51.0,29.06,West,260,13.0,28.0,91,0.27,,,0.35,,2013-01-31 04:32:00,
2013-01-30 23:42:00,54.0,51.0,29.06,West,260,13.0,28.0,91,0.27,,,0.35,,2013-01-31 04:42:00,
2013-01-30 23:52:00,54.0,52.0,29.05,WSW,240,14.0,22.0,92,0.32,,,0.41,,2013-01-31 04:52:00,